Year,Month,Day,Hour,Minute,Value (Times are PST for temperature in C)
2019,06,25,00,00,11.80
2019,06,25,00,01,11.80
2019,06,25,00,02,11.80
2019,06,25,00,03,11.80
2019,06,25,00,04,11.80
2019,06,25,00,05,11.80
2019,06,25,00,06,11.80
2019,06,25,00,07,11.80
2019,06,25,00,08,11.80
2019,06,25,00,09,11.80
2019,06,25,00,10,11.80
2019,06,25,00,11,11.80
2019,06,25,00,12,11.70
2019,06,25,00,13,11.70
2019,06,25,00,14,11.70
2019,06,25,00,15,11.70
2019,06,25,00,16,11.70
2019,06,25,00,17,11.70
2019,06,25,00,18,11.70
2019,06,25,00,19,11.70
2019,06,25,00,20,11.70
2019,06,25,00,21,11.70
2019,06,25,00,22,11.70
2019,06,25,00,23,11.70
2019,06,25,00,24,11.70
2019,06,25,00,25,11.70
2019,06,25,00,26,11.70
2019,06,25,00,27,11.70
2019,06,25,00,28,11.70
2019,06,25,00,29,11.70
2019,06,25,00,30,11.70
2019,06,25,00,31,11.70
2019,06,25,00,32,11.70
2019,06,25,00,33,11.60
2019,06,25,00,34,11.60
2019,06,25,00,35,11.60
2019,06,25,00,36,11.60
2019,06,25,00,37,11.60
2019,06,25,00,38,11.60
2019,06,25,00,39,11.60
2019,06,25,00,40,11.60
2019,06,25,00,41,11.60
2019,06,25,00,42,11.60
2019,06,25,00,43,11.60
2019,06,25,00,44,11.60
2019,06,25,00,45,11.60
2019,06,25,00,46,11.60
2019,06,25,00,47,11.50
2019,06,25,00,48,11.50
2019,06,25,00,49,11.50
2019,06,25,00,50,11.50
2019,06,25,00,51,11.50
2019,06,25,00,52,11.40
2019,06,25,00,53,11.40
2019,06,25,00,54,11.40
2019,06,25,00,55,11.40
2019,06,25,00,56,11.40
2019,06,25,00,57,11.40
2019,06,25,00,58,11.40
2019,06,25,00,59,11.40
2019,06,25,01,00,11.40
2019,06,25,01,01,11.30
2019,06,25,01,02,11.30
2019,06,25,01,03,11.30
2019,06,25,01,04,11.30
2019,06,25,01,05,11.30
2019,06,25,01,06,11.30
2019,06,25,01,07,11.30
2019,06,25,01,08,11.30
2019,06,25,01,09,11.20
2019,06,25,01,10,11.20
2019,06,25,01,11,11.20
2019,06,25,01,12,11.20
2019,06,25,01,13,11.20
2019,06,25,01,14,11.20
2019,06,25,01,15,11.20
2019,06,25,01,16,11.20
2019,06,25,01,17,11.20
2019,06,25,01,18,11.10
2019,06,25,01,19,11.10
2019,06,25,01,20,11.10
2019,06,25,01,21,11.10
2019,06,25,01,22,11.10
2019,06,25,01,23,11.10
2019,06,25,01,24,11.10
2019,06,25,01,25,11.10
2019,06,25,01,26,11.00
2019,06,25,01,27,11.00
2019,06,25,01,28,11.00
2019,06,25,01,29,11.00
2019,06,25,01,30,11.00
2019,06,25,01,31,11.00
2019,06,25,01,32,10.90
2019,06,25,01,33,10.90
2019,06,25,01,34,10.90
2019,06,25,01,35,10.90
2019,06,25,01,36,10.90
2019,06,25,01,37,10.90
2019,06,25,01,38,10.90
2019,06,25,01,39,10.90
2019,06,25,01,40,10.90
2019,06,25,01,41,10.90
2019,06,25,01,42,10.90
2019,06,25,01,43,10.90
2019,06,25,01,44,10.90
2019,06,25,01,45,10.90
2019,06,25,01,46,10.80
2019,06,25,01,47,10.80
2019,06,25,01,48,10.80
2019,06,25,01,49,10.80
2019,06,25,01,50,10.80
2019,06,25,01,51,10.80
2019,06,25,01,52,10.80
2019,06,25,01,53,10.80
2019,06,25,01,54,10.80
2019,06,25,01,55,10.80
2019,06,25,01,56,10.80
2019,06,25,01,57,10.80
2019,06,25,01,58,10.80
2019,06,25,01,59,10.80
2019,06,25,02,00,10.80
2019,06,25,02,01,10.80
2019,06,25,02,02,10.80
2019,06,25,02,03,10.80
2019,06,25,02,04,10.70
2019,06,25,02,05,10.70
2019,06,25,02,06,10.70
2019,06,25,02,07,10.70
2019,06,25,02,08,10.70
2019,06,25,02,09,10.70
2019,06,25,02,10,10.70
2019,06,25,02,11,10.70
2019,06,25,02,12,10.70
2019,06,25,02,13,10.70
2019,06,25,02,14,10.70
2019,06,25,02,15,10.70
2019,06,25,02,16,10.70
2019,06,25,02,17,10.70
2019,06,25,02,18,10.70
2019,06,25,02,19,10.70
2019,06,25,02,20,10.70
2019,06,25,02,21,10.70
2019,06,25,02,22,10.70
2019,06,25,02,23,10.70
2019,06,25,02,24,10.70
2019,06,25,02,25,10.70
2019,06,25,02,26,10.70
2019,06,25,02,27,10.60
2019,06,25,02,28,10.60
2019,06,25,02,29,10.60
2019,06,25,02,30,10.60
2019,06,25,02,31,10.60
2019,06,25,02,32,10.60
2019,06,25,02,33,10.60
2019,06,25,02,34,10.60
2019,06,25,02,35,10.60
2019,06,25,02,36,10.60
2019,06,25,02,37,10.60
2019,06,25,02,38,10.60
2019,06,25,02,39,10.60
2019,06,25,02,40,10.60
2019,06,25,02,41,10.60
2019,06,25,02,42,10.60
2019,06,25,02,43,10.60
2019,06,25,02,44,10.60
2019,06,25,02,45,10.60
2019,06,25,02,46,10.50
2019,06,25,02,47,10.50
2019,06,25,02,48,10.50
2019,06,25,02,49,10.50
2019,06,25,02,50,10.50
2019,06,25,02,51,10.50
2019,06,25,02,52,10.50
2019,06,25,02,53,10.50
2019,06,25,02,54,10.50
2019,06,25,02,55,10.50
2019,06,25,02,56,10.50
2019,06,25,02,57,10.50
2019,06,25,02,58,10.50
2019,06,25,02,59,10.50
2019,06,25,03,00,10.50
2019,06,25,03,01,10.50
2019,06,25,03,02,10.50
2019,06,25,03,03,10.50
2019,06,25,03,04,10.50
2019,06,25,03,05,10.40
2019,06,25,03,06,10.40
2019,06,25,03,07,10.40
2019,06,25,03,08,10.40
2019,06,25,03,09,10.40
2019,06,25,03,10,10.40
2019,06,25,03,11,10.40
2019,06,25,03,12,10.40
2019,06,25,03,13,10.40
2019,06,25,03,14,10.40
2019,06,25,03,15,10.40
2019,06,25,03,16,10.40
2019,06,25,03,17,10.40
2019,06,25,03,18,10.40
2019,06,25,03,19,10.40
2019,06,25,03,20,10.40
2019,06,25,03,21,10.40
2019,06,25,03,22,10.40
2019,06,25,03,23,10.40
2019,06,25,03,24,10.30
2019,06,25,03,25,10.30
2019,06,25,03,26,10.30
2019,06,25,03,27,10.30
2019,06,25,03,28,10.30
2019,06,25,03,29,10.30
2019,06,25,03,30,10.30
2019,06,25,03,31,10.30
2019,06,25,03,32,10.30
2019,06,25,03,33,10.30
2019,06,25,03,34,10.30
2019,06,25,03,35,10.30
2019,06,25,03,36,10.30
2019,06,25,03,37,10.30
2019,06,25,03,38,10.30
2019,06,25,03,39,10.30
2019,06,25,03,40,10.30
2019,06,25,03,41,10.30
2019,06,25,03,42,10.30
2019,06,25,03,43,10.30
2019,06,25,03,44,10.30
2019,06,25,03,45,10.30
2019,06,25,03,46,10.20
2019,06,25,03,47,10.20
2019,06,25,03,48,10.20
2019,06,25,03,49,10.20
2019,06,25,03,50,10.20
2019,06,25,03,51,10.20
2019,06,25,03,52,10.20
2019,06,25,03,53,10.20
2019,06,25,03,54,10.20
2019,06,25,03,55,10.20
2019,06,25,03,56,10.20
2019,06,25,03,57,10.20
2019,06,25,03,58,10.20
2019,06,25,03,59,10.20
2019,06,25,04,00,10.20
2019,06,25,04,01,10.20
2019,06,25,04,02,10.20
2019,06,25,04,03,10.20
2019,06,25,04,04,10.20
2019,06,25,04,05,10.10
2019,06,25,04,06,10.10
2019,06,25,04,07,10.10
2019,06,25,04,08,10.10
2019,06,25,04,09,10.10
2019,06,25,04,10,10.10
2019,06,25,04,11,10.10
2019,06,25,04,12,10.10
2019,06,25,04,13,10.10
2019,06,25,04,14,10.10
2019,06,25,04,15,10.10
2019,06,25,04,16,10.10
2019,06,25,04,17,10.10
2019,06,25,04,18,10.10
2019,06,25,04,19,10.10
2019,06,25,04,20,10.10
2019,06,25,04,21,10.10
2019,06,25,04,22,10.10
2019,06,25,04,23,10.10
2019,06,25,04,24,10.00
2019,06,25,04,25,10.00
2019,06,25,04,26,10.00
2019,06,25,04,27,10.00
2019,06,25,04,28,10.00
2019,06,25,04,29,10.00
2019,06,25,04,30,10.00
2019,06,25,04,31,10.00
2019,06,25,04,32,10.00
2019,06,25,04,33,10.00
2019,06,25,04,34,10.00
2019,06,25,04,35,9.90
2019,06,25,04,36,9.90
2019,06,25,04,37,9.90
2019,06,25,04,38,9.90
2019,06,25,04,39,9.90
2019,06,25,04,40,9.90
2019,06,25,04,41,9.90
2019,06,25,04,42,9.90
2019,06,25,04,43,9.90
2019,06,25,04,44,9.90
2019,06,25,04,45,9.90
2019,06,25,04,46,9.90
2019,06,25,04,47,9.90
2019,06,25,04,48,9.90
2019,06,25,04,49,9.90
2019,06,25,04,50,9.90
2019,06,25,04,51,9.80
2019,06,25,04,52,9.80
2019,06,25,04,53,9.80
2019,06,25,04,54,9.80
2019,06,25,04,55,9.80
2019,06,25,04,56,9.80
2019,06,25,04,57,9.80
2019,06,25,04,58,9.80
2019,06,25,04,59,9.80
2019,06,25,05,00,9.80
2019,06,25,05,01,9.80
2019,06,25,05,02,9.80
2019,06,25,05,03,9.80
2019,06,25,05,04,9.80
2019,06,25,05,05,9.80
2019,06,25,05,06,9.80
2019,06,25,05,07,9.80
2019,06,25,05,08,9.80
2019,06,25,05,09,9.80
2019,06,25,05,10,9.80
2019,06,25,05,11,9.80
2019,06,25,05,12,9.80
2019,06,25,05,13,9.80
2019,06,25,05,14,9.80
2019,06,25,05,15,9.80
2019,06,25,05,16,9.80
2019,06,25,05,17,9.90
2019,06,25,05,18,9.90
2019,06,25,05,19,9.90
2019,06,25,05,20,9.90
2019,06,25,05,21,9.90
2019,06,25,05,22,9.90
2019,06,25,05,23,9.90
2019,06,25,05,24,9.90
2019,06,25,05,25,9.90
2019,06,25,05,26,9.90
2019,06,25,05,27,9.90
2019,06,25,05,28,9.90
2019,06,25,05,29,10.00
2019,06,25,05,30,10.00
2019,06,25,05,31,10.00
2019,06,25,05,32,10.00
2019,06,25,05,33,10.00
2019,06,25,05,34,10.00
2019,06,25,05,35,10.00
2019,06,25,05,36,10.00
2019,06,25,05,37,10.00
2019,06,25,05,38,10.00
2019,06,25,05,39,10.00
2019,06,25,05,40,10.00
2019,06,25,05,41,10.00
2019,06,25,05,42,10.00
2019,06,25,05,43,10.00
2019,06,25,05,44,10.00
2019,06,25,05,45,10.00
2019,06,25,05,46,10.00
2019,06,25,05,47,10.00
2019,06,25,05,48,10.00
2019,06,25,05,49,10.00
2019,06,25,05,50,10.00
2019,06,25,05,51,10.00
2019,06,25,05,52,10.00
2019,06,25,05,53,10.00
2019,06,25,05,54,10.00
2019,06,25,05,55,10.00
2019,06,25,05,56,10.00
2019,06,25,05,57,9.90
2019,06,25,05,58,9.90
2019,06,25,05,59,9.90
2019,06,25,06,00,9.90
2019,06,25,06,01,9.90
2019,06,25,06,02,9.90
2019,06,25,06,03,9.90
2019,06,25,06,04,9.90
2019,06,25,06,05,9.90
2019,06,25,06,06,9.90
2019,06,25,06,07,9.90
2019,06,25,06,08,9.90
2019,06,25,06,09,9.90
2019,06,25,06,10,9.90
2019,06,25,06,11,9.90
2019,06,25,06,12,9.90
2019,06,25,06,13,9.90
2019,06,25,06,14,9.90
2019,06,25,06,15,9.90
2019,06,25,06,16,9.90
2019,06,25,06,17,9.90
2019,06,25,06,18,9.90
2019,06,25,06,19,9.90
2019,06,25,06,20,9.90
2019,06,25,06,21,9.90
2019,06,25,06,22,9.90
2019,06,25,06,23,9.90
2019,06,25,06,24,9.90
2019,06,25,06,25,10.00
2019,06,25,06,26,10.00
2019,06,25,06,27,10.00
2019,06,25,06,28,10.00
2019,06,25,06,29,10.00
2019,06,25,06,30,10.00
2019,06,25,06,31,10.00
2019,06,25,06,32,10.10
2019,06,25,06,33,10.10
2019,06,25,06,34,10.10
2019,06,25,06,35,10.10
2019,06,25,06,36,10.10
2019,06,25,06,37,10.10
2019,06,25,06,38,10.10
2019,06,25,06,39,10.20
2019,06,25,06,40,10.20
2019,06,25,06,41,10.20
2019,06,25,06,42,10.20
2019,06,25,06,43,10.20
2019,06,25,06,44,10.20
2019,06,25,06,45,10.20
2019,06,25,06,46,10.30
2019,06,25,06,47,10.30
2019,06,25,06,48,10.30
2019,06,25,06,49,10.30
2019,06,25,06,50,10.30
2019,06,25,06,51,10.30
2019,06,25,06,52,10.40
2019,06,25,06,53,10.40
2019,06,25,06,54,10.40
2019,06,25,06,55,10.40
2019,06,25,06,56,10.40
2019,06,25,06,57,10.40
2019,06,25,06,58,10.50
2019,06,25,06,59,10.50
2019,06,25,07,00,10.50
2019,06,25,07,01,10.60
2019,06,25,07,02,10.60
2019,06,25,07,03,10.60
2019,06,25,07,04,10.60
2019,06,25,07,05,10.60
2019,06,25,07,06,10.60
2019,06,25,07,07,10.70
2019,06,25,07,08,10.70
2019,06,25,07,09,10.70
2019,06,25,07,10,10.70
2019,06,25,07,11,10.70
2019,06,25,07,12,10.70
2019,06,25,07,13,10.70
2019,06,25,07,14,10.70
2019,06,25,07,15,10.80
2019,06,25,07,16,10.80
2019,06,25,07,17,10.80
2019,06,25,07,18,10.80
2019,06,25,07,19,10.80
2019,06,25,07,20,10.80
2019,06,25,07,21,10.80
2019,06,25,07,22,10.80
2019,06,25,07,23,10.80
2019,06,25,07,24,10.90
2019,06,25,07,25,10.90
2019,06,25,07,26,10.90
2019,06,25,07,27,10.90
2019,06,25,07,28,10.90
2019,06,25,07,29,10.90
2019,06,25,07,30,10.90
2019,06,25,07,31,10.90
2019,06,25,07,32,10.90
2019,06,25,07,33,11.00
2019,06,25,07,34,11.00
2019,06,25,07,35,11.00
2019,06,25,07,36,11.00
2019,06,25,07,37,11.00
2019,06,25,07,38,11.10
2019,06,25,07,39,11.10
2019,06,25,07,40,11.10
2019,06,25,07,41,11.10
2019,06,25,07,42,11.10
2019,06,25,07,43,11.10
2019,06,25,07,44,11.10
2019,06,25,07,45,11.20
2019,06,25,07,46,11.20
2019,06,25,07,47,11.20
2019,06,25,07,48,11.20
2019,06,25,07,49,11.20
2019,06,25,07,50,11.20
2019,06,25,07,51,11.20
2019,06,25,07,52,11.30
2019,06,25,07,53,11.30
2019,06,25,07,54,11.30
2019,06,25,07,55,11.30
2019,06,25,07,56,11.30
2019,06,25,07,57,11.30
2019,06,25,07,58,11.40
2019,06,25,07,59,11.40
2019,06,25,08,00,11.40
2019,06,25,08,01,11.40
2019,06,25,08,02,11.50
2019,06,25,08,03,11.50
2019,06,25,08,04,11.60
2019,06,25,08,05,11.60
2019,06,25,08,06,11.70
2019,06,25,08,07,11.70
2019,06,25,08,08,11.70
2019,06,25,08,09,11.80
2019,06,25,08,10,11.90
2019,06,25,08,11,11.90
2019,06,25,08,12,12.00
2019,06,25,08,13,12.10
2019,06,25,08,14,12.20
2019,06,25,08,15,12.20
2019,06,25,08,16,12.20
2019,06,25,08,17,12.30
2019,06,25,08,18,12.30
2019,06,25,08,19,12.40
2019,06,25,08,20,12.50
2019,06,25,08,21,12.50
2019,06,25,08,22,12.60
2019,06,25,08,23,12.70
2019,06,25,08,24,12.70
2019,06,25,08,25,12.70
2019,06,25,08,26,12.80
2019,06,25,08,27,12.80
2019,06,25,08,28,12.90
2019,06,25,08,29,12.90
2019,06,25,08,30,13.00
2019,06,25,08,31,13.00
2019,06,25,08,32,13.00
2019,06,25,08,33,13.10
2019,06,25,08,34,13.20
2019,06,25,08,35,13.20
2019,06,25,08,36,13.30
2019,06,25,08,37,13.40
2019,06,25,08,38,13.40
2019,06,25,08,39,13.50
2019,06,25,08,40,13.50
2019,06,25,08,41,13.60
2019,06,25,08,42,13.60
2019,06,25,08,43,13.70
2019,06,25,08,44,13.70
2019,06,25,08,45,13.70
2019,06,25,08,46,13.80
2019,06,25,08,47,13.80
2019,06,25,08,48,13.90
2019,06,25,08,49,13.90
2019,06,25,08,50,13.90
2019,06,25,08,51,14.00
2019,06,25,08,52,14.00
2019,06,25,08,53,14.10
2019,06,25,08,54,14.10
2019,06,25,08,55,14.10
2019,06,25,08,56,14.10
2019,06,25,08,57,14.10
2019,06,25,08,58,14.20
2019,06,25,08,59,14.20
2019,06,25,09,00,14.20
2019,06,25,09,01,14.20
2019,06,25,09,02,14.20
2019,06,25,09,03,14.20
2019,06,25,09,04,14.20
2019,06,25,09,05,14.20
2019,06,25,09,06,14.20
2019,06,25,09,07,14.20
2019,06,25,09,08,14.30
2019,06,25,09,09,14.30
2019,06,25,09,10,14.30
2019,06,25,09,11,14.30
2019,06,25,09,12,14.30
2019,06,25,09,13,14.40
2019,06,25,09,14,14.40
2019,06,25,09,15,14.40
2019,06,25,09,16,14.50
2019,06,25,09,17,14.50
2019,06,25,09,18,14.50
2019,06,25,09,19,14.60
2019,06,25,09,20,14.60
2019,06,25,09,21,14.60
2019,06,25,09,22,14.60
2019,06,25,09,23,14.60
2019,06,25,09,24,14.60
2019,06,25,09,25,14.70
2019,06,25,09,26,14.70
2019,06,25,09,27,14.70
2019,06,25,09,28,14.70
2019,06,25,09,29,14.70
2019,06,25,09,30,14.70
2019,06,25,09,31,14.70
2019,06,25,09,32,14.70
2019,06,25,09,33,14.70
2019,06,25,09,34,14.70
2019,06,25,09,35,14.70
2019,06,25,09,36,14.70
2019,06,25,09,37,14.80
2019,06,25,09,38,14.80
2019,06,25,09,39,14.80
2019,06,25,09,40,14.80
2019,06,25,09,41,14.80
2019,06,25,09,42,14.90
2019,06,25,09,43,14.90
2019,06,25,09,44,14.90
2019,06,25,09,45,14.90
2019,06,25,09,46,15.00
2019,06,25,09,47,15.00
2019,06,25,09,48,15.00
2019,06,25,09,49,15.10
2019,06,25,09,50,15.10
2019,06,25,09,51,15.10
2019,06,25,09,52,15.10
2019,06,25,09,53,15.20
2019,06,25,09,54,15.20
2019,06,25,09,55,15.20
2019,06,25,09,56,15.30
2019,06,25,09,57,15.30
2019,06,25,09,58,15.30
2019,06,25,09,59,15.30
2019,06,25,10,00,15.40
2019,06,25,10,01,15.40
2019,06,25,10,02,15.40
2019,06,25,10,03,15.40
2019,06,25,10,04,15.40
2019,06,25,10,05,15.40
2019,06,25,10,06,15.50
2019,06,25,10,07,15.50
2019,06,25,10,08,15.50
2019,06,25,10,09,15.50
2019,06,25,10,10,15.60
2019,06,25,10,11,15.60
2019,06,25,10,12,15.60
2019,06,25,10,13,15.60
2019,06,25,10,14,15.60
2019,06,25,10,15,15.60
2019,06,25,10,16,15.60
2019,06,25,10,17,15.70
2019,06,25,10,18,15.70
2019,06,25,10,19,15.70
2019,06,25,10,20,15.70
2019,06,25,10,21,15.70
2019,06,25,10,22,15.80
2019,06,25,10,23,15.80
2019,06,25,10,24,15.80
2019,06,25,10,25,15.80
2019,06,25,10,26,15.80
2019,06,25,10,27,15.90
2019,06,25,10,28,15.90
2019,06,25,10,29,15.90
2019,06,25,10,30,15.90
2019,06,25,10,31,16.00
2019,06,25,10,32,16.00
2019,06,25,10,33,16.00
2019,06,25,10,34,16.10
2019,06,25,10,35,16.10
2019,06,25,10,36,16.10
2019,06,25,10,37,16.10
2019,06,25,10,38,16.10
2019,06,25,10,39,16.20
2019,06,25,10,40,16.20
2019,06,25,10,41,16.20
2019,06,25,10,42,16.20
2019,06,25,10,43,16.20
2019,06,25,10,44,16.20
2019,06,25,10,45,16.20
2019,06,25,10,46,16.30
2019,06,25,10,47,16.30
2019,06,25,10,48,16.30
2019,06,25,10,49,16.30
2019,06,25,10,50,16.40
2019,06,25,10,51,16.40
2019,06,25,10,52,16.40
2019,06,25,10,53,16.40
2019,06,25,10,54,16.30
2019,06,25,10,55,16.30
2019,06,25,10,56,16.30
2019,06,25,10,57,16.30
2019,06,25,10,58,16.30
2019,06,25,10,59,16.20
2019,06,25,11,00,16.20
2019,06,25,11,01,16.20
2019,06,25,11,02,16.20
2019,06,25,11,03,16.10
2019,06,25,11,04,16.10
2019,06,25,11,05,16.10
2019,06,25,11,06,16.10
2019,06,25,11,07,16.10
2019,06,25,11,08,16.10
2019,06,25,11,09,16.10
2019,06,25,11,10,16.00
2019,06,25,11,11,16.00
2019,06,25,11,12,15.90
2019,06,25,11,13,15.90
2019,06,25,11,14,15.90
2019,06,25,11,15,15.90
2019,06,25,11,16,15.80
2019,06,25,11,17,15.80
2019,06,25,11,18,15.80
2019,06,25,11,19,15.80
2019,06,25,11,20,15.80
2019,06,25,11,21,15.80
2019,06,25,11,22,15.80
2019,06,25,11,23,15.90
2019,06,25,11,24,15.90
2019,06,25,11,25,15.90
2019,06,25,11,26,15.90
2019,06,25,11,27,16.00
2019,06,25,11,28,16.00
2019,06,25,11,29,16.10
2019,06,25,11,30,16.10
2019,06,25,11,31,16.20
2019,06,25,11,32,16.20
2019,06,25,11,33,16.20
2019,06,25,11,34,16.30
2019,06,25,11,35,16.40
2019,06,25,11,36,16.40
2019,06,25,11,37,16.50
2019,06,25,11,38,16.60
2019,06,25,11,39,16.60
2019,06,25,11,40,16.60
2019,06,25,11,41,16.70
2019,06,25,11,42,16.70
2019,06,25,11,43,16.70
2019,06,25,11,44,16.80
2019,06,25,11,45,16.80
2019,06,25,11,46,16.90
2019,06,25,11,47,16.90
2019,06,25,11,48,16.90
2019,06,25,11,49,16.90
2019,06,25,11,50,17.00
2019,06,25,11,51,17.00
2019,06,25,11,52,17.10
2019,06,25,11,53,17.10
2019,06,25,11,54,17.10
2019,06,25,11,55,17.20
2019,06,25,11,56,17.20
2019,06,25,11,57,17.20
2019,06,25,11,58,17.30
2019,06,25,11,59,17.30
2019,06,25,12,00,17.40
2019,06,25,12,01,17.40
2019,06,25,12,02,17.50
2019,06,25,12,03,17.60
2019,06,25,12,04,17.60
2019,06,25,12,05,17.60
2019,06,25,12,06,17.60
2019,06,25,12,07,17.70
2019,06,25,12,08,17.70
2019,06,25,12,09,17.70
2019,06,25,12,10,17.70
2019,06,25,12,11,17.70
2019,06,25,12,12,17.70
2019,06,25,12,13,17.70
2019,06,25,12,14,17.80
2019,06,25,12,15,17.80
2019,06,25,12,16,17.80
2019,06,25,12,17,17.90
2019,06,25,12,18,17.90
2019,06,25,12,19,17.90
2019,06,25,12,20,17.90
2019,06,25,12,21,17.90
2019,06,25,12,22,17.90
2019,06,25,12,23,17.90
2019,06,25,12,24,18.00
2019,06,25,12,25,18.10
2019,06,25,12,26,18.10
2019,06,25,12,27,18.10
2019,06,25,12,28,18.20
2019,06,25,12,29,18.20
2019,06,25,12,30,18.20
2019,06,25,12,31,18.20
2019,06,25,12,32,18.30
2019,06,25,12,33,18.30
2019,06,25,12,34,18.30
2019,06,25,12,35,18.30
2019,06,25,12,36,18.30
2019,06,25,12,37,18.30
2019,06,25,12,38,18.30
2019,06,25,12,39,18.30
2019,06,25,12,40,18.30
2019,06,25,12,41,18.30
2019,06,25,12,42,18.30
2019,06,25,12,43,18.30
2019,06,25,12,44,18.40
2019,06,25,12,45,18.40
2019,06,25,12,46,18.50
2019,06,25,12,47,18.50
2019,06,25,12,48,18.60
2019,06,25,12,49,18.70
2019,06,25,12,50,18.70
2019,06,25,12,51,18.80
2019,06,25,12,52,18.80
2019,06,25,12,53,18.70
2019,06,25,12,54,18.70
2019,06,25,12,55,18.70
2019,06,25,12,56,18.60
2019,06,25,12,57,18.60
2019,06,25,12,58,18.60
2019,06,25,12,59,18.50
2019,06,25,13,00,18.50
2019,06,25,13,01,18.50
2019,06,25,13,02,18.40
2019,06,25,13,03,18.40
2019,06,25,13,04,18.40
2019,06,25,13,05,18.50
2019,06,25,13,06,18.50
2019,06,25,13,07,18.60
2019,06,25,13,08,18.60
2019,06,25,13,09,18.70
2019,06,25,13,10,18.80
2019,06,25,13,11,18.90
2019,06,25,13,12,18.90
2019,06,25,13,13,19.00
2019,06,25,13,14,19.00
2019,06,25,13,15,19.10
2019,06,25,13,16,19.20
2019,06,25,13,17,19.30
2019,06,25,13,18,19.40
2019,06,25,13,19,19.40
2019,06,25,13,20,19.50
2019,06,25,13,21,19.60
2019,06,25,13,22,19.60
2019,06,25,13,23,19.70
2019,06,25,13,24,19.80
2019,06,25,13,25,19.80
2019,06,25,13,26,19.90
2019,06,25,13,27,19.90
2019,06,25,13,28,20.00
2019,06,25,13,29,20.00
2019,06,25,13,30,20.10
2019,06,25,13,31,20.10
2019,06,25,13,32,20.20
2019,06,25,13,33,20.20
2019,06,25,13,34,20.20
2019,06,25,13,35,20.20
2019,06,25,13,36,20.20
2019,06,25,13,37,20.20
2019,06,25,13,38,20.20
2019,06,25,13,39,20.30
2019,06,25,13,40,20.30
2019,06,25,13,41,20.30
2019,06,25,13,42,20.30
2019,06,25,13,43,20.30
2019,06,25,13,44,20.40
2019,06,25,13,45,20.50
2019,06,25,13,46,20.50
2019,06,25,13,47,20.50
2019,06,25,13,48,20.50
2019,06,25,13,49,20.50
2019,06,25,13,50,20.50
2019,06,25,13,51,20.60
2019,06,25,13,52,20.60
2019,06,25,13,53,20.70
2019,06,25,13,54,20.70
2019,06,25,13,55,20.70
2019,06,25,13,56,20.80
2019,06,25,13,57,20.80
2019,06,25,13,58,20.80
2019,06,25,13,59,20.90
2019,06,25,14,00,21.00
2019,06,25,14,01,21.00
2019,06,25,14,02,21.10
2019,06,25,14,03,21.20
2019,06,25,14,04,21.20
2019,06,25,14,05,21.30
2019,06,25,14,06,21.40
2019,06,25,14,07,21.40
2019,06,25,14,08,21.50
2019,06,25,14,09,21.50
2019,06,25,14,10,21.60
2019,06,25,14,11,21.60
2019,06,25,14,12,21.60
2019,06,25,14,13,21.70
2019,06,25,14,14,21.70
2019,06,25,14,15,21.70
2019,06,25,14,16,21.70
2019,06,25,14,17,21.80
2019,06,25,14,18,21.70
2019,06,25,14,19,21.70
2019,06,25,14,20,21.70
2019,06,25,14,21,21.70
2019,06,25,14,22,21.70
2019,06,25,14,23,21.70
2019,06,25,14,24,21.70
2019,06,25,14,25,21.70
2019,06,25,14,26,21.70
2019,06,25,14,27,21.80
2019,06,25,14,28,21.80
2019,06,25,14,29,21.90
2019,06,25,14,30,21.90
2019,06,25,14,31,21.90
2019,06,25,14,32,21.90
2019,06,25,14,33,22.00
2019,06,25,14,34,22.10
2019,06,25,14,35,22.10
2019,06,25,14,36,22.20
2019,06,25,14,37,22.30
2019,06,25,14,38,22.30
2019,06,25,14,39,22.40
2019,06,25,14,40,22.40
2019,06,25,14,41,22.40
2019,06,25,14,42,22.30
2019,06,25,14,43,22.10
2019,06,25,14,44,22.00
2019,06,25,14,45,22.00
2019,06,25,14,46,21.90
2019,06,25,14,47,21.90
2019,06,25,14,48,22.00
2019,06,25,14,49,22.00
2019,06,25,14,50,22.10
2019,06,25,14,51,22.10
2019,06,25,14,52,22.10
2019,06,25,14,53,22.10
2019,06,25,14,54,22.20
2019,06,25,14,55,22.20
2019,06,25,14,56,22.20
2019,06,25,14,57,22.20
2019,06,25,14,58,22.20
2019,06,25,14,59,22.30
2019,06,25,15,00,22.30
2019,06,25,15,01,22.20
2019,06,25,15,02,22.20
2019,06,25,15,03,22.20
2019,06,25,15,04,22.20
2019,06,25,15,05,22.20
2019,06,25,15,06,22.20
2019,06,25,15,07,22.20
2019,06,25,15,08,22.30
2019,06,25,15,09,22.30
2019,06,25,15,10,22.30
2019,06,25,15,11,22.40
2019,06,25,15,12,22.50
2019,06,25,15,13,22.50
2019,06,25,15,14,22.60
2019,06,25,15,15,22.60
2019,06,25,15,16,22.70
2019,06,25,15,17,22.70
2019,06,25,15,18,22.70
2019,06,25,15,19,22.70
2019,06,25,15,20,22.80
2019,06,25,15,21,22.80
2019,06,25,15,22,22.90
2019,06,25,15,23,22.90
2019,06,25,15,24,22.80
2019,06,25,15,25,22.70
2019,06,25,15,26,22.50
2019,06,25,15,27,22.30
2019,06,25,15,28,22.30
2019,06,25,15,29,22.20
2019,06,25,15,30,22.20
2019,06,25,15,31,22.30
2019,06,25,15,32,22.30
2019,06,25,15,33,22.30
2019,06,25,15,34,22.40
2019,06,25,15,35,22.50
2019,06,25,15,36,22.50
2019,06,25,15,37,22.50
2019,06,25,15,38,22.40
2019,06,25,15,39,22.40
2019,06,25,15,40,22.40
2019,06,25,15,41,22.40
2019,06,25,15,42,22.50
2019,06,25,15,43,22.50
2019,06,25,15,44,22.50
2019,06,25,15,45,22.50
2019,06,25,15,46,22.40
2019,06,25,15,47,22.30
2019,06,25,15,48,22.10
2019,06,25,15,49,22.00
2019,06,25,15,50,21.90
2019,06,25,15,51,21.80
2019,06,25,15,52,21.80
2019,06,25,15,53,21.80
2019,06,25,15,54,21.80
2019,06,25,15,55,21.80
2019,06,25,15,56,21.80
2019,06,25,15,57,21.80
2019,06,25,15,58,21.80
2019,06,25,15,59,21.80
2019,06,25,16,00,21.90
2019,06,25,16,01,21.90
2019,06,25,16,02,21.90
2019,06,25,16,03,22.00
2019,06,25,16,04,22.00
2019,06,25,16,05,22.10
2019,06,25,16,06,22.10
2019,06,25,16,07,22.20
2019,06,25,16,08,22.20
2019,06,25,16,09,22.20
2019,06,25,16,10,22.20
2019,06,25,16,11,22.10
2019,06,25,16,12,22.10
2019,06,25,16,13,22.10
2019,06,25,16,14,22.00
2019,06,25,16,15,22.00
2019,06,25,16,16,22.00
2019,06,25,16,17,22.00
2019,06,25,16,18,22.10
2019,06,25,16,19,22.10
2019,06,25,16,20,22.10
2019,06,25,16,21,22.10
2019,06,25,16,22,22.10
2019,06,25,16,23,22.10
2019,06,25,16,24,22.10
2019,06,25,16,25,22.10
2019,06,25,16,26,22.10
2019,06,25,16,27,22.10
2019,06,25,16,28,22.10
2019,06,25,16,29,22.10
2019,06,25,16,30,22.10
2019,06,25,16,31,22.00
2019,06,25,16,32,22.00
2019,06,25,16,33,21.90
2019,06,25,16,34,21.80
2019,06,25,16,35,21.80
2019,06,25,16,36,21.70
2019,06,25,16,37,21.70
2019,06,25,16,38,21.70
2019,06,25,16,39,21.70
2019,06,25,16,40,21.70
2019,06,25,16,41,21.70
2019,06,25,16,42,21.70
2019,06,25,16,43,21.70
2019,06,25,16,44,21.70
2019,06,25,16,45,21.70
2019,06,25,16,46,21.70
2019,06,25,16,47,21.70
2019,06,25,16,48,21.80
2019,06,25,16,49,21.80
2019,06,25,16,50,21.80
2019,06,25,16,51,21.90
2019,06,25,16,52,21.90
2019,06,25,16,53,22.00
2019,06,25,16,54,22.10
2019,06,25,16,55,22.10
2019,06,25,16,56,22.20
2019,06,25,16,57,22.20
2019,06,25,16,58,22.30
2019,06,25,16,59,22.30
2019,06,25,17,00,22.30
2019,06,25,17,01,22.30
2019,06,25,17,02,22.20
2019,06,25,17,03,22.20
2019,06,25,17,04,22.10
2019,06,25,17,05,22.10
2019,06,25,17,06,22.10
2019,06,25,17,07,22.10
2019,06,25,17,08,22.00
2019,06,25,17,09,22.00
2019,06,25,17,10,22.00
2019,06,25,17,11,21.90
2019,06,25,17,12,21.90
2019,06,25,17,13,21.90
2019,06,25,17,14,21.90
2019,06,25,17,15,21.90
2019,06,25,17,16,21.80
2019,06,25,17,17,21.80
2019,06,25,17,18,21.80
2019,06,25,17,19,21.80
2019,06,25,17,20,21.80
2019,06,25,17,21,21.80
2019,06,25,17,22,21.80
2019,06,25,17,23,21.80